Location: Newark
(45.6439°N, 0.5436°E)
Time: 01:57:52
(UTC+00:00)

N. Korean satellite - Pass Details

Date: 26 November 2019
Orbit: 456 x 506 km, 97.2° (Epoch: 07 December)

Event Time Altitude Azimuth Distance (km) Brightness Sun altitude
Rises 04:43:18 0° 33° (NNE) 2,598 10.6 -25.4°
Reaches altitude 10° 04:46:32 10° 64° (ENE) 1,696 10.1 -24.8°
Maximum altitude 04:48:05 12° 89° (E) 1,549 10.1 -24.5°
Drops below altitude 10° 04:49:37 10° 115° (ESE) 1,677 10.2 -24.3°
Sets 04:52:46 0° 146° (SE) 2,537 10.8 -23.7°
